www.pogodaiklimat.ru

Погода и климат >> Архив погоды >> Индонезия >> Посо


ПОГОДА в Посо

  • Прогноз погоды в Посо
  • Монитор погоды в Посо

АРХИВ ПОГОДЫ в Посо

Время (UTC), дата Ветер
(напр.,м/с)
 
Видим.   Явления Облачность Т
(С)
Тd
(С)
f
(%)
Тe
(С)
Тes
(С)
Комфортность P
(гПа)
Po
(гПа)
Тmin
(С)
Tmax
(С)
R
(мм)
R24
(мм)
S
(см)
09 15.08 СВ 3 10 км 4/3 500 м
[Cu med, cong As op Ci fib]
+30.4 +23.1 65 +41 +41 опасность
перегрева
1010.6 1009.8
12 15.08 штиль 0 10 км 4/3 500 м
[Cu med, cong As op Ci fib]
+25.6 +24.4 93 +36 +36 очень
душно
1012.0 1011.1 +33.4
18 15.08 Ю 2 8000 м 6/3 500 м
[Cu med, cong Ac trans Ci fib]
+23.8 +22.5 92 +31 +31 очень
душно
1011.8 1011.0
21 15.08 Ю 2 8000 м 6/3 500 м
[Cu med, cong As op Ci fib]
+23.4 +22.1 92 +32 +32 очень
душно
1011.2 1010.4
00 16.08 Ю 3 10 км 4/3 500 м
[Cu med, cong As op Ci fib]
+28.6 +25.4 83 +42 +45 опасность
перегрева
1012.8 1011.9 +22.0
03 16.08 ЮЗ 8 10 км 4/3 500 м
[Cu med, cong As op Ci fib]
+33.0 +21.2 50 +41 +43 опасность
перегрева
1012.0 1011.1
06 16.08 С 5 10 км 4/3 500 м
[Cu med, cong As op Ci fib]
+32.4 +22.2 55 +41 +47 опасность
перегрева
1010.4 1009.5
09 16.08 С 3 9000 м 4/3 500 м
[Cu med, cong As op Ci fib]
+30.6 +22.4 62 +40 +41 очень
душно
1009.9 1009.0
12 16.08 штиль 0 9000 м 6/3 500 м
[Cu med, cong As op Ci fib]
+27.2 +24.0 83 +38 +38 очень
душно
1012.0 1011.1 +32.4
15 16.08 штиль 0 9000 м 5/3 500 м
[Cu med, cong As op Ci fib]
+24.6 +22.7 89 +32 +32 очень
душно
1012.9 1012.0
21 16.08 штиль 0 10 км 5/3 500 м
[Cu med, cong As op Ci fib]
+22.2 +19.9 87 +28 +28 душно 1012.0 1011.3
00 17.08 Ю 2 10 км 1/1 540 м
[Cu med, cong Ci fib]
+27.2 +21.5 71 +35 +39 очень
душно
1012.9 1012.0 +20.8
03 17.08 ЮВ 4 10 км 4/3 500 м
[Cu med, cong As trans Ci fib]
+33.6 +21.2 48 +41 +49 опасность
перегрева
1012.2 1011.4
06 17.08 С 6 10 км 4/3 500 м
[Cu med, cong As op Ci fib]
+31.8 +22.8 59 +42 +46 опасность
перегрева
1010.2 1009.3
09 17.08 СВ 2 9000 м 5/3 500 м
[Cu med, cong As op Ci fib]
+30.0 +23.3 67 +40 +41 очень
душно
1010.0 1009.1
12 17.08 штиль 0 8000 м 8/4 500 м
[Cu med, cong As op Ci fib]
+27.8 +24.9 84 +40 +40 очень
душно
1012.0 1011.2 +32.8
15 17.08 ЮЗ 2 5000 м слаб. дождь 10/4 500 м
[Cu med, cong Ac trans Ci sp]
+27.2 +24.5 85 +38 +38 очень
душно
1013.9 1013.0 33
18 17.08 штиль 0 9000 м {дождь} 5/3 500 м
[Cu med, cong As op Ci fib]
+24.2 +23.5 96 +33 +33 очень
душно
1012.4 1011.5 1
21 17.08 штиль 0 9000 м 5/3 500 м
[Cu med, cong As op Ci fib]
+23.8 +22.8 94 +31 +31 очень
душно
1012.3 1011.4
00 18.08 штиль 0 10 км 5/3 500 м
[Cu med, cong As op Ci fib]
+26.4 +23.4 84 +36 +40 очень
душно
1013.0 1012.1 +22.8 34
06 18.08 С 5 10 км гроза без осадков 5/4 480 м
[Cb calv As op Ci fib]
+31.6 +24.1 65 +44 +48 опасность
перегрева
1009.3 1008.4
09 18.08 СВ 2 7000 м осадки на расстоянии 9/5 480 м
[Cb calv As op Ci fib]
+29.6 +24.1 72 +41 +41 опасность
перегрева
1009.5 1008.6
12 18.08 штиль 0 9000 м 9/4 480 м
[Cu med, cong As op Ci fib]
+26.8 +24.1 85 +37 +37 очень
душно
1011.7 1010.8 +32.0
15 18.08 штиль 0 9000 м 9/4 480 м
[Cu med, cong As op Ci fib]
+25.6 +24.1 91 +35 +35 очень
душно
1012.7 1011.8
18 18.08 штиль 0 9000 м 4/3 480 м
[Cu med, cong As op Ci fib]
+23.4 +22.1 92 +32 +32 очень
душно
1011.3 1010.4
21 18.08 штиль 0 9000 м 4/3 480 м
[Cu med, cong As op Ci fib]
+22.0 +21.0 94 +28 +28 душно 1011.2 1010.4
00 19.08 ЮЗ 3 10 км 4/3 500 м
[Cu med, cong As op Ci fib]
+28.6 +21.7 66 +37 +40 очень
душно
1012.0 1011.1 +22.0
03 19.08 Ю 3 10 км 5/3 500 м
[Cu med, cong As op Ci fib]
+33.4 +21.0 48 +41 +51 опасность
перегрева
1010.9 1010.0
06 19.08 С 4 9000 м 5/3 500 м
[Cu med, cong As op Ci fib]
+30.4 +23.1 65 +41 +47 опасность
перегрева
1008.8 1008.0
09 19.08 Ю 3 5000 м слаб. дождь 9/3 480 м
[Cu med, cong As op Ci fib]
+26.6 +25.1 91 +38 +39 очень
душно
1009.0 1008.1 2
12 19.08 Ю 1 7000 м в посл. час дождь 9/4 450 м
[Cb cap As op Ci fib]
+24.6 +23.3 92 +33 +33 очень
душно
1011.6 1010.7 +32.2 8
15 19.08 штиль 0 8000 м {гроза} 9/3 480 м
[Cu med, cong As op Ci fib]
+24.0 +23.9 99 +33 +33 очень
душно
1012.9 1012.0
18 19.08 З 2 8000 м слаб. дождь 9/4 480 м
[Cu med, cong As op Ci fib]
+23.6 +22.9 96 +31 +31 очень
душно
1012.1 1011.2 7
21 19.08 ЮВ 2 8000 м {дождь} 9/4 480 м
[Cu med, cong As op Ci fib]
+23.2 +22.2 94 +32 +32 очень
душно
1011.1 1010.3 2
00 20.08 Ю 4 10 км 4/3 500 м
[Cu med, cong As op Ci fib]
+28.4 +19.2 57 +34 +36 очень
душно
1012.5 1011.6 +23.6 19
03 20.08 Ю 5 10 км 4/3 500 м
[Cu med, cong As op Ci fib]
+31.6 +19.5 49 +37 +44 очень
душно
1011.6 1010.8
06 20.08 ЮЗ 5 10 км 4/3 500 м
[Cu med, cong As op Ci fib]
+32.6 +20.4 49 +39 +45 очень
душно
1008.8 1008.0
09 20.08 ЮЗ 2 10 км 4/3 500 м
[Cu med, cong As op Ci fib]
+32.0 +21.0 52 +39 +40 очень
душно
1008.7 1007.8
12 20.08 Ю 2 9000 м 6/4 500 м
[Cb calv As op Ci fib]
+28.0 +22.4 72 +37 +37 очень
душно
1011.1 1010.2 +32.6
15 20.08 ЮЗ 4 9000 м 6/4 500 м
[Cu med, cong As op Ci fib]
+27.8 +21.2 67 +35 +35 очень
душно
1011.9 1011.1
18 20.08 Ю 6 8000 м 5/3 500 м
[Cu med, cong As trans Ci fib]
+26.6 +21.5 74 +34 +34 очень
душно
1010.4 1009.5
21 20.08 Ю 3 8000 м 5/3 500 м
[Cu med, cong As trans Ci fib]
+26.0 +21.4 76 +33 +33 очень
душно
1010.1 1009.2
00 21.08 В 2 10 км 3/1 500 м
[Cu med, cong As op Ci fib]
+29.2 +17.6 50 +34 +38 очень
душно
1011.2 1010.3 +31.2
06 21.08 Ю 4 10 км 4/3 480 м
[Cu med, cong As op Ci fib]
+32.4 +18.3 43 +37 +44 очень
душно
1007.9 1006.3
09 21.08 СВ 3 9000 м 8/4 480 м
[Cu med, cong As op Ci fib]
+30.0 +23.3 67 +40 +41 очень
душно
1007.7 1006.8
12 21.08 штиль 0 10 км 6/4 500 м
[Cu med, cong As op Ci fib]
+26.6 +24.2 87 +37 +37 очень
душно
1010.6 1009.7 +32.6
15 21.08 штиль 0 10 км 6/4 500 м
[Cu med, cong As op Ci fib]
+25.8 +21.5 77 +33 +33 очень
душно
1012.0 1011.1
21 21.08 ЮЗ 2 10 км 6/4 500 м
[Cu med, cong As op Ci fib]
+24.4 +19.4 74 +30 +30 очень
душно
1011.5 1010.6
00 22.08 Ю 3 10 км 1/1 540 м
[Cu hum Ci fib]
+27.8 +20.5 65 +35 +39 очень
душно
1012.6 1011.7 +24.4
03 22.08 ЮВ 3 10 км 3/3 500 м
[Cu med, cong As trans Ci fib]
+32.0 +19.8 49 +38 +50 очень
душно
1010.5 1011.4

 

Местоположение метеостанции Посо (Индонезия): широта -1.38 долгота 120.73 высота над уровнем моря 2 м.

В архиве по умолчанию представлена погода в Посо за последнюю неделю. Архивные данные за месяц целиком и за предыдущие месяцы, начиная с января 2011 года, Вы можете получить, выбрав интересующий диапазон дат из раскрывающегося списка и нажав кнопку "Ввод!".


*Определитесь, кто Вы:
робот инопланетянин человек

Внимание! Время в таблицах - всемирное. Для получения местного времени необходимо прибавить поправку, которая равна 8 ч.

Смотрите также архив погоды в соседних городах и на ближайших метеорологических станциях:

Погода в Палу (Индонезия) (136 км)
Погода в Масамбе (Индонезия) (136 км)
Погода в Маджене (Индонезия) (229 км)
Погода в Лувуке (Индонезия) (234 км)
Погода в Толи-Толи (Индонезия) (267 км)
Погода в Горонтало (Индонезия) (334 км)
Погода в Колаке (Индонезия) (337 км)
Погода в Кендари (Индонезия) (357 км)
Погода в Самаринде (Индонезия) (407 км)
Погода в Баликпапане (Индонезия) (426 км)

Пояснения к столбцам:

Ветер - указаны скорость ветра в м/с - средняя за 10 мин, порывы в срок и между сроками (в фигурных скобках) и направление, откуда дует ветер: С - северный, СВ - северо-восточный, В - восточный, ЮВ - юго-восточный, Ю - южный, ЮЗ - юго-западный, З - западный, СЗ - северо-западный.
Видимость - горизонтальная дальность видимости в метрах или километрах. При видимости от 1 до 10 км при отсутствии осадков обычно наблюдается дымка, при ухудшении видимости до 1 км и менее - туман. В сухую погоду видимость может ухудшаться дымом, пылью или мглою.
Явления - указаны атмосферные явления, наблюдавшиеся в срок или в последний час перед сроком; фигурными скобками обозначены явления, наблюдавшиеся между сроками (за 1-3 часа до срока); квадратными скобками обозначены град или гололедные отложения с указанием их диаметра в мм.
Облачность - указаны через наклонную черту общая и нижняя облачность в баллах и высота нижней границы облаков в метрах; квадратными скобками обозначены формы облаков: Ci - перистые, Cs - перисто-слоистые, Cc - перисто-кучевые, Ac - высококучевые, As - высокослоистые, Sc - слоисто-кучевые, Ns - слоисто-дождевые, Cu - кучевые, Cb - кучево-дождевые. Подробнее классификацию облаков см. в Атласе облаков (PDF).
T - Температура воздуха - температура, измеренная на высоте 2 м над землей.
Td - Температура точки росы - температура, при понижении до которой содержащийся в воздухе водяной пар достигнет насыщения.
f - Относительная влажность воздуха - влажноcть воздуха, измеренная на высоте 2 м над землей.
Te - Эффективная температура - температура, которую ощущает одетый по сезону человек в тени. Характеристика душности погоды. При расчете учитывается влияние влажности воздуха и скорости ветра на теплоощущения человека.
Tes - Эффективная температура на солнце - температура, которую ощущает человек, с поправкой на солнечный нагрев. Характеристика знойности погоды. Зависит от высоты солнца над горизонтом, облачности и скорости ветра. Ночью, в пасмурную погоду, а также при ветре 12 м/с и более поправка равна нулю.
P - Атмосферное давление - приведенное к уровню моря атмосферное давление.
Po - Атмосферное давление - измеренное на уровне метеостанции атмосферное давление.
Tmin - Минимальная температура - минимум температуры воздуха на высоте 2 м над землей.
Tmax - Максимальная температура - максимум температуры воздуха на высоте 2 м над землей.
R - Количество осадков - Количество выпавших осадков за период времени, мм. При наведении курсора мыши на число - период времени, за который выпало указанное количество осадков.
R24 - Количество осадков - Количество выпавших осадков за 24 часа, мм.
S - Снежный покров - Высота снежного покрова, см. При наведении курсора мыши на число - состояние снежного покрова и степень покрытия местности в баллах.